AEE6814 LGIR-LGSK

Flight info

Callsign AEE6814
Flight time 0h 43m
Altitude 32000
Route EPALO M749 MIL/N0385F240 M749 ATV B1 SIGFO
Aircraft A20N/M-SDE2E3FGHIRWXY/LB1

Departure

Time 2026-04-27 14:48
Airport Heraklion International Nikos Kazantzakis Airport (LGIR)

Arrival

Time 2026-04-27 15:31
Airport Skiathos Island National Airport (LGSK)
Time Latitude Longitude Altitude Speed Heading
2026-04-27 14:36 35.33814 25.17900 93 ft 0 kts 185°
2026-04-27 14:41 35.33815 25.17900 93 ft 0 kts 185°
2026-04-27 14:42 35.33831 25.17902 92 ft 2 kts 184°
2026-04-27 14:42 35.33842 25.17903 92 ft 2 kts 183°
2026-04-27 14:42 35.33859 25.17903 92 ft 2 kts 178°
2026-04-27 14:43 35.33880 25.17896 94 ft 2 kts 128°
2026-04-27 14:43 35.33884 25.17886 92 ft 1 kts 102°
2026-04-27 14:43 35.33884 25.17883 92 ft 0 kts 100°
2026-04-27 14:44 35.33877 25.17979 93 ft 22 kts 95°
2026-04-27 14:44 35.33867 25.18155 98 ft 19 kts 95°
2026-04-27 14:45 35.33854 25.18304 101 ft 20 kts 95°
2026-04-27 14:45 35.33841 25.18505 97 ft 24 kts 95°
2026-04-27 14:45 35.33826 25.18691 95 ft 20 kts 96°
2026-04-27 14:45 35.33816 25.18851 94 ft 18 kts 92°
2026-04-27 14:46 35.33845 25.18987 95 ft 16 kts 55°
2026-04-27 14:46 35.33905 25.19032 92 ft 7 kts 303°
2026-04-27 14:46 35.33907 25.19015 94 ft 1 kts 274°
2026-04-27 14:46 35.33907 25.19009 94 ft 1 kts 274°
2026-04-27 14:47 35.33909 25.18983 92 ft 15 kts 274°
2026-04-27 14:47 35.33939 25.18551 91 ft 88 kts 275°
2026-04-27 14:47 35.34013 25.17480 98 ft 161 kts 276°
2026-04-27 14:47 35.34131 25.16020 641 ft 179 kts 281°
2026-04-27 14:48 35.34760 25.14765 1656 ft 175 kts 322°
2026-04-27 14:48 35.36991 25.13751 3287 ft 184 kts 340°
2026-04-27 14:48 35.38310 25.13194 3573 ft 214 kts 340°
2026-04-27 14:49 35.39812 25.12588 3944 ft 239 kts 341°
2026-04-27 14:49 35.41450 25.11962 4527 ft 252 kts 342°
2026-04-27 14:49 35.43145 25.11334 5271 ft 257 kts 342°
2026-04-27 14:49 35.44871 25.10703 6049 ft 261 kts 342°
2026-04-27 14:50 35.46609 25.10072 6839 ft 265 kts 342°
2026-04-27 14:50 35.48393 25.09425 7625 ft 270 kts 342°
2026-04-27 14:50 35.50207 25.08768 8443 ft 274 kts 342°
2026-04-27 14:50 35.52049 25.08101 9262 ft 278 kts 342°
2026-04-27 14:51 35.53924 25.07423 10064 ft 283 kts 342°
2026-04-27 14:51 35.55856 25.06723 10552 ft 298 kts 342°
2026-04-27 14:51 35.57917 25.05975 10856 ft 319 kts 342°
2026-04-27 14:51 35.60112 25.05180 11229 ft 337 kts 342°
2026-04-27 14:52 35.62389 25.04355 11850 ft 345 kts 342°
2026-04-27 14:52 35.64713 25.03513 12559 ft 351 kts 342°
2026-04-27 14:52 35.67068 25.02660 13281 ft 355 kts 342°
2026-04-27 14:52 35.69452 25.01795 13984 ft 359 kts 342°
2026-04-27 14:53 35.71855 25.00891 14619 ft 362 kts 341°
2026-04-27 14:53 35.74244 24.99866 15284 ft 365 kts 339°
2026-04-27 14:53 35.76631 24.98759 15976 ft 368 kts 338°
2026-04-27 14:53 35.79021 24.97614 16644 ft 370 kts 337°
2026-04-27 14:54 35.81426 24.96451 17329 ft 373 kts 337°
2026-04-27 14:54 35.83857 24.95279 17988 ft 376 kts 337°
2026-04-27 14:54 35.86271 24.94124 18595 ft 379 kts 337°
2026-04-27 14:54 35.88740 24.92949 19159 ft 382 kts 338°
2026-04-27 14:55 35.91229 24.91771 19700 ft 385 kts 337°
2026-04-27 14:55 35.93742 24.90585 20258 ft 387 kts 337°
2026-04-27 14:55 35.96268 24.89393 20806 ft 390 kts 337°
2026-04-27 14:55 35.98812 24.88192 21340 ft 393 kts 337°
2026-04-27 14:56 36.01377 24.86980 21888 ft 395 kts 337°
2026-04-27 14:56 36.03917 24.85780 22828 ft 386 kts 337°
2026-04-27 14:56 36.06392 24.84612 23826 ft 375 kts 336°
2026-04-27 14:56 36.08797 24.83477 24690 ft 364 kts 336°
2026-04-27 14:57 36.11129 24.82376 25534 ft 353 kts 336°
2026-04-27 14:57 36.13384 24.81310 26380 ft 341 kts 336°
2026-04-27 14:57 36.15566 24.80277 27113 ft 332 kts 335°
2026-04-27 14:57 36.17716 24.79255 27602 ft 331 kts 335°
2026-04-27 14:58 36.19874 24.78226 27980 ft 332 kts 335°
2026-04-27 14:58 36.22034 24.77194 28323 ft 334 kts 335°
2026-04-27 14:58 36.24211 24.76155 28671 ft 336 kts 335°
2026-04-27 14:58 36.26398 24.75112 28979 ft 338 kts 335°
2026-04-27 14:59 36.28601 24.74062 29287 ft 340 kts 335°
2026-04-27 14:59 36.30821 24.73004 29590 ft 342 kts 335°
2026-04-27 14:59 36.33049 24.71942 29883 ft 345 kts 335°
2026-04-27 14:59 36.35298 24.70870 30167 ft 346 kts 335°
2026-04-27 15:00 36.37553 24.69795 30415 ft 348 kts 335°
2026-04-27 15:00 36.39790 24.68726 30654 ft 350 kts 335°
2026-04-27 15:00 36.42069 24.67638 30897 ft 352 kts 335°
2026-04-27 15:00 36.44358 24.66544 31129 ft 353 kts 335°
2026-04-27 15:01 36.46659 24.65443 31357 ft 355 kts 335°
2026-04-27 15:01 36.48968 24.64339 31583 ft 357 kts 335°
2026-04-27 15:01 36.51286 24.63228 31803 ft 358 kts 335°
2026-04-27 15:01 36.53617 24.62111 32011 ft 360 kts 335°
2026-04-27 15:02 36.58378 24.59823 32071 ft 374 kts 335°
2026-04-27 15:02 36.63344 24.57434 32075 ft 390 kts 336°
2026-04-27 15:03 36.68505 24.54950 32074 ft 405 kts 336°
2026-04-27 15:03 36.73858 24.52352 32070 ft 419 kts 334°
2026-04-27 15:04 36.79217 24.49205 32072 ft 432 kts 332°
2026-04-27 15:04 36.84613 24.45894 32072 ft 432 kts 331°
2026-04-27 15:05 36.90001 24.42551 32074 ft 432 kts 331°
2026-04-27 15:05 36.95347 24.39231 32075 ft 432 kts 332°
2026-04-27 15:06 37.00745 24.35880 32074 ft 433 kts 332°
2026-04-27 15:06 37.06143 24.32527 32082 ft 433 kts 332°
2026-04-27 15:07 37.10631 24.29736 32085 ft 433 kts 332°
2026-04-27 15:07 37.16946 24.25802 32085 ft 434 kts 332°
2026-04-27 15:08 37.22353 24.22427 32090 ft 434 kts 332°
2026-04-27 15:08 37.27762 24.19045 32089 ft 434 kts 332°
2026-04-27 15:09 37.33132 24.15682 32088 ft 434 kts 332°
2026-04-27 15:09 37.38536 24.12293 32098 ft 434 kts 332°
2026-04-27 15:10 37.43949 24.08893 32098 ft 434 kts 332°
2026-04-27 15:10 37.49360 24.05488 32095 ft 435 kts 332°
2026-04-27 15:11 37.54768 24.02080 32102 ft 435 kts 332°
2026-04-27 15:11 37.60176 23.98666 32105 ft 435 kts 332°
2026-04-27 15:12 37.65574 23.95253 32108 ft 433 kts 332°
2026-04-27 15:12 37.70952 23.91847 32120 ft 432 kts 332°
2026-04-27 15:13 37.76220 23.88506 32124 ft 418 kts 332°
2026-04-27 15:13 37.81407 23.85210 32131 ft 417 kts 332°
2026-04-27 15:14 37.86626 23.81907 31745 ft 425 kts 334°
2026-04-27 15:14 37.89434 23.80658 30874 ft 433 kts 345°
2026-04-27 15:14 37.92386 23.79946 29868 ft 443 kts 349°
2026-04-27 15:15 37.95457 23.79385 28894 ft 447 kts 351°
2026-04-27 15:15 37.98551 23.78923 28141 ft 448 kts 352°
2026-04-27 15:15 38.01639 23.78507 27486 ft 445 kts 352°
2026-04-27 15:15 38.04704 23.78104 26914 ft 441 kts 352°
2026-04-27 15:16 38.07742 23.77699 26221 ft 439 kts 352°
2026-04-27 15:16 38.10783 23.77281 25483 ft 439 kts 352°
2026-04-27 15:16 38.13816 23.76855 24776 ft 439 kts 351°
2026-04-27 15:16 38.16853 23.76419 24078 ft 439 kts 351°
2026-04-27 15:17 38.19894 23.75979 23321 ft 438 kts 351°
2026-04-27 15:17 38.22919 23.75540 22527 ft 437 kts 351°
2026-04-27 15:17 38.25919 23.75106 21735 ft 428 kts 351°
2026-04-27 15:17 38.28839 23.74684 20974 ft 417 kts 351°
2026-04-27 15:18 38.31684 23.74272 20306 ft 405 kts 351°
2026-04-27 15:18 38.34442 23.73873 19703 ft 394 kts 351°
2026-04-27 15:18 38.37157 23.73478 19122 ft 392 kts 351°
2026-04-27 15:18 38.39860 23.73084 18549 ft 390 kts 351°
2026-04-27 15:19 38.42560 23.72691 17894 ft 389 kts 351°
2026-04-27 15:19 38.45209 23.72305 17245 ft 388 kts 351°
2026-04-27 15:19 38.47919 23.71910 16591 ft 386 kts 352°
2026-04-27 15:19 38.50544 23.71528 15978 ft 384 kts 351°
2026-04-27 15:20 38.53193 23.71142 15363 ft 382 kts 351°
2026-04-27 15:20 38.55808 23.70761 14746 ft 373 kts 351°
2026-04-27 15:20 38.58345 23.70391 14150 ft 362 kts 351°
2026-04-27 15:20 38.60821 23.70031 13515 ft 353 kts 351°
2026-04-27 15:21 38.63239 23.69679 12859 ft 345 kts 351°
2026-04-27 15:21 38.65601 23.69333 12228 ft 338 kts 351°
2026-04-27 15:21 38.67923 23.68992 11598 ft 333 kts 352°
2026-04-27 15:21 38.70205 23.68657 10989 ft 328 kts 352°
2026-04-27 15:22 38.72460 23.68325 10399 ft 325 kts 352°
2026-04-27 15:22 38.74711 23.67993 9781 ft 326 kts 352°
2026-04-27 15:22 38.76966 23.67662 9122 ft 326 kts 352°
2026-04-27 15:22 38.79213 23.67333 8486 ft 323 kts 352°
2026-04-27 15:23 38.81416 23.67010 7852 ft 313 kts 352°
2026-04-27 15:23 38.83553 23.66696 7249 ft 305 kts 352°
2026-04-27 15:23 38.85638 23.66390 6642 ft 298 kts 352°
2026-04-27 15:23 38.87680 23.66089 6008 ft 292 kts 353°
2026-04-27 15:24 38.89684 23.65793 5386 ft 288 kts 353°
2026-04-27 15:24 38.91661 23.65500 4760 ft 284 kts 354°
2026-04-27 15:24 38.93610 23.65211 4231 ft 278 kts 354°
2026-04-27 15:24 38.95496 23.64932 4015 ft 267 kts 355°
2026-04-27 15:25 38.97298 23.64666 3995 ft 263 kts 355°
2026-04-27 15:25 38.99112 23.64399 3994 ft 258 kts 355°
2026-04-27 15:25 39.00850 23.64142 3972 ft 246 kts 355°
2026-04-27 15:25 39.02522 23.63894 3820 ft 238 kts 355°
2026-04-27 15:26 39.04151 23.63653 3550 ft 234 kts 355°
2026-04-27 15:26 39.05747 23.63416 3293 ft 228 kts 356°
2026-04-27 15:26 39.07301 23.63186 3055 ft 219 kts 356°
2026-04-27 15:26 39.08775 23.62966 2912 ft 207 kts 356°
2026-04-27 15:27 39.10163 23.62759 2769 ft 196 kts 356°
2026-04-27 15:27 39.11482 23.62499 2562 ft 190 kts 348°
2026-04-27 15:27 39.12710 23.61878 2272 ft 191 kts 332°
2026-04-27 15:27 39.13716 23.60791 1995 ft 188 kts 312°
2026-04-27 15:28 39.14384 23.59351 1714 ft 187 kts 292°
2026-04-27 15:28 39.14640 23.57740 1562 ft 178 kts 272°
2026-04-27 15:28 39.14501 23.56190 1579 ft 174 kts 254°
2026-04-27 15:28 39.14021 23.54770 1570 ft 174 kts 237°
2026-04-27 15:29 39.13338 23.53513 1581 ft 172 kts 231°
2026-04-27 15:29 39.12610 23.52292 1579 ft 172 kts 231°
2026-04-27 15:29 39.12107 23.50924 1563 ft 168 kts 262°
2026-04-27 15:29 39.12342 23.49513 1574 ft 161 kts 307°
2026-04-27 15:30 39.13213 23.48719 1566 ft 153 kts 350°
2026-04-27 15:30 39.14268 23.48765 864 ft 165 kts 20°
2026-04-27 15:30 39.15340 23.49332 461 ft 160 kts 21°
2026-04-27 15:30 39.16370 23.49758 200 ft 148 kts 22°
2026-04-27 15:31 39.16990 23.50041 65 ft 138 kts 19°
2026-04-27 15:31 39.17784 23.50391 43 ft 87 kts 18°
2026-04-27 15:31 39.18132 23.50545 51 ft 22 kts 18°
2026-04-27 15:31 39.18231 23.50588 57 ft 25 kts 18°
2026-04-27 15:32 39.18430 23.50661 61 ft 4 kts 65°
2026-04-27 15:32 39.18418 23.50674 61 ft 8 kts 176°
2026-04-27 15:32 39.18335 23.50634 61 ft 14 kts 199°
2026-04-27 15:32 39.18230 23.50587 57 ft 22 kts 199°
2026-04-27 15:33 39.18045 23.50504 48 ft 27 kts 200°
2026-04-27 15:33 39.17925 23.50380 44 ft 20 kts 251°
2026-04-27 15:33 39.17906 23.50270 51 ft 8 kts 283°
2026-04-27 15:33 39.17916 23.50236 56 ft 0 kts 292°